Doha, Qatar

4:45 PM AST on February 08, 2016 (GMT +0300)
Doha International

Weather History for OTBD - June, 2014

Change the Weather History Date:

Sunday, June 29, 2014

  Actual Average Record
Temperature  
Mean Temperature 98 °F -  
Max Temperature 112 °F 107 °F 114 °F (2007)
Min Temperature 83 °F 84 °F 82 °F (2000)
Cooling Degree Days 32    
Growing Degree Days 48 (Base 50)    
Moisture  
Dew Point 68 °F    
Average Humidity 44    
Maximum Humidity 71    
Minimum Humidity 5    
Precipitation  
Precipitation 0.00 in 0.00 in - ()
Sea Level Pressure  
Sea Level Pressure 29.58 in    
Wind  
Wind Speed 4 mph ()    
Max Wind Speed 12 mph    
Max Gust Speed -    
Visibility 7.7 miles    
Events      
Averages and records for this station are not official NWS values.
T = Trace of Precipitation, MM = Missing Value Source: Averaged Metar Reports

Daily Weather History Graph

Daily Weather History Graph

Search for Another Location

Airport or City:

Trip Planner

Search our weather history database for the weather conditions in past years. The results will help you decide how hot, cold, wet, or windy it might be!

Date:

Astronomy

Jun. 29, 2014 Rise Set
Actual Time 4:46 AM AST 6:27 PM AST
Civil Twilight 4:20 AM AST 6:53 PM AST
Nautical Twilight 3:49 AM AST 7:24 PM AST
Astronomical Twilight 3:16 AM AST 7:57 PM AST
Moon 6:28 AM AST (6/29) 7:51 PM AST (6/29)
Length of Visible Light 14h 33m
Length of Day
13h 41m
Waxing Crescent, 4% of the Moon is Illuminated
Jun 29
Waxing Crescent
Jul 5
First Quarter
Jul 12
Full
Jul 19
Last Quarter
Jul 27
New

Hourly Weather History & Observations

Time (AST) Temp. Heat Index Dew Point Humidity Pressure Visibility Wind Dir Wind Speed Gust Speed Precip Events Conditions
12:00 AM 89 °F - 76 °F 57% 29.60 in 9 mi Calm Calm - -  
12:00 AM 89.6 °F 99.8 °F 75.2 °F 62% 29.59 in - Calm Calm - N/A   Clear
12:30 AM 91.4 °F 100.1 °F 73.4 °F 55% 29.59 in - WSW 4.6 mph - N/A   Clear
1:00 AM 91.4 °F 100.1 °F 73.4 °F 55% 29.56 in - SW 3.5 mph - N/A   Clear
1:30 AM 89.6 °F 98.2 °F 73.4 °F 59% 29.56 in - Variable 2.3 mph - N/A   Clear
2:00 AM 89.6 °F 96.2 °F 71.6 °F 55% 29.56 in - SW 4.6 mph - N/A   Clear
2:30 AM 89.6 °F 93.4 °F 68.0 °F 49% 29.56 in - SW 4.6 mph - N/A   Clear
3:00 AM 88 °F - 68 °F 42% 29.59 in 6 mi WSW 3.5 mph - -  
3:00 AM 87.8 °F 91.4 °F 68.0 °F 52% 29.56 in - WSW 3.5 mph - N/A   Clear
3:30 AM 87.8 °F 92.6 °F 69.8 °F 55% 29.59 in - SW 3.5 mph - N/A   Clear
4:00 AM 86.0 °F 90.4 °F 69.8 °F 58% 29.59 in - Variable 2.3 mph - N/A   Clear
4:30 AM 86.0 °F 89.4 °F 68.0 °F 55% 29.59 in - SW 3.5 mph - N/A   Clear
5:00 AM 86.0 °F 88.2 °F 66.2 °F 51% 29.59 in - SW 3.5 mph - N/A   Clear
5:30 AM 87.8 °F 89.4 °F 64.4 °F 46% 29.59 in - WSW 4.6 mph - N/A   Clear
6:00 AM 89.6 °F 92.2 °F 66.2 °F 46% 29.59 in - WSW 3.5 mph - N/A   Clear
6:30 AM 91.4 °F 93.2 °F 64.4 °F 41% 29.62 in - WSW 5.8 mph - N/A   Clear
8:30 AM 100.4 °F 100.2 °F 59.0 °F 25% 29.62 in - West 4.6 mph - N/A   Clear
9:00 AM 101 °F - 56 °F 14% 29.64 in 7 mi WSW 5.8 mph - -  
9:00 AM 102.2 °F 101.4 °F 57.2 °F 22% 29.62 in - WSW 5.8 mph - N/A   Clear
9:30 AM 102.2 °F 100.4 °F 53.6 °F 20% 29.62 in - West 3.5 mph - N/A   Clear
10:00 AM 105.8 °F 105.5 °F 57.2 °F 20% 29.62 in - WSW 6.9 mph - N/A   Clear
11:00 AM 107.6 °F 106.8 °F 55.4 °F 18% 29.62 in - West 5.8 mph - N/A   Clear
12:00 PM 109 °F - 42 °F 5% 29.62 in 7 mi NW 5.8 mph - -  
12:00 PM 109.4 °F - 41.0 °F 10% 29.59 in - NW 5.8 mph - N/A   Clear
1:00 PM 111.2 °F - 48.2 °F 12% 29.59 in - NNW 5.8 mph - N/A   Clear
2:00 PM 109.4 °F 110.2 °F 59.0 °F 19% 29.56 in - East 10.4 mph - N/A   Clear
2:30 PM 105.8 °F 106.8 °F 59.0 °F 22% 29.56 in - East 11.5 mph - N/A   Clear
3:00 PM 106 °F - 64 °F 17% 29.54 in 9 mi ESE 10.4 mph - -  
3:00 PM 105.8 °F 109.8 °F 64.4 °F 26% 29.53 in - ESE 10.4 mph - N/A   Clear
3:30 PM 102.2 °F 108.4 °F 68.0 °F 33% 29.53 in - East 11.5 mph - N/A   Clear
4:00 PM 98.6 °F 109.2 °F 73.4 °F 44% 29.53 in - ENE 11.5 mph - N/A   Clear
4:30 PM 98.6 °F 111.7 °F 75.2 °F 47% 29.53 in - ENE 9.2 mph - N/A   Clear
5:00 PM 98.6 °F 107.7 °F 71.6 °F 42% 29.53 in - ENE 8.1 mph - N/A   Clear
5:30 PM 98.6 °F 107.7 °F 71.6 °F 42% 29.53 in - ENE 6.9 mph - N/A   Clear
6:00 PM 96 °F - 74 °F 41% 29.56 in 9 mi ENE 6.9 mph - -  
6:00 PM 96.8 °F 109.6 °F 75.2 °F 50% 29.53 in - ENE 6.9 mph - N/A   Clear
6:30 PM 93.2 °F 110.2 °F 78.8 °F 63% 29.56 in - East 6.9 mph - N/A   Clear
7:00 PM 93.2 °F 110.2 °F 78.8 °F 63% 29.56 in - East 6.9 mph - N/A   Clear
7:30 PM 91.4 °F 111.0 °F 80.6 °F 71% 29.56 in - East 5.8 mph - N/A   Clear
8:00 PM 91.4 °F 111.0 °F 80.6 °F 71% 29.56 in - ESE 4.6 mph - N/A   Clear
8:30 PM 91.4 °F 107.2 °F 78.8 °F 66% 29.59 in - ESE 2.3 mph - N/A   Clear
9:00 PM 91 °F - 80 °F 63% 29.60 in 7 mi 1.2 mph - -  
9:00 PM 91.4 °F 111.0 °F 80.6 °F 71% 29.59 in - Variable 1.2 mph - N/A   Clear
9:30 PM 89.6 °F 104.7 °F 78.8 °F 70% 29.59 in - SE 2.3 mph - N/A   Clear
10:00 PM 89.6 °F 98.2 °F 73.4 °F 59% 29.56 in - Variable 2.3 mph - N/A   Clear
11:00 PM 93.2 °F 98.8 °F 69.8 °F 46% 29.56 in - Variable 2.3 mph - N/A   Clear
11:30 PM 91.4 °F 95.4 °F 68.0 °F 46% 29.53 in - Variable 2.3 mph - N/A   Clear